EHI
6 3 1 0 1 0 0 0 0 0 0 0 1 2 3 3 1 0 0 1 2 3 3 4 4 2 1 1 1 2 3 6 9 12 11 9 7 3 1 0 0 1 3 5 5 4 2 1 1
2 1 0 0 1 0 0 0 0 0 0 0 1 2 2 2 1 0 0 1 2 2 1 3 6 3 1 0 0 1 2 4 7 9 9 9 7 3 0 1 1 2 4 6 6 4 3 2 2
0 0 0 0 0 0 0 0 0 0 0 0 0 1 1 1 1 0 0 0 1 1 0 3 7 6 2 1 1 0 1 2 3 4 5 7 6 3 1 3 4 4 5 6 6 5 4 4 3
0 0 0 0 0 0 0 0 0 0 0 0 0 0 0 0 0 0 0 0 1 1 0 3 7 8 6 4 2 1 1 1 2 1 2 4 4 3 4 5 6 6 6 6 6 5 5 4 3
0 0 0 0 0 0 0 0 0 0 0 0 0 0 0 0 0 0 0 1 2 2 1 3 7 9 8 6 5 4 3 3 3 2 2 2 3 4 5 6 6 6 6 6 4 3 3 2 1
0 0 0 0 0 0 0 0 0 0 0 0 0 0 0 0 0 0 0 1 3 4 3 3 6 8 7 7 6 5 5 5 5 4 4 3 4 5 5 6 6 6 5 4 2 1 1 1 1
0 0 0 0 0 0 0 0 0 0 0 0 0 0 0 0 0 1 2 2 3 4 3 3 4 4 6 6 5 4 4 4 4 5 5 5 5 5 5 5 6 5 4 2 1 1 2 2 1
0 0 0 0 0 0 0 0 0 0 0 0 0 0 1 1 1 3 4 4 3 3 3 2 1 1 3 4 3 3 3 3 3 4 4 4 4 4 4 5 6 6 4 2 2 2 3 3 2
0 0 0 0 0 0 0 0 0 0 0 0 0 1 2 2 3 4 4 3 2 2 1 1 0 0 1 1 2 2 3 3 3 3 2 2 2 1 1 2 4 5 5 4 3 3 4 4 3
1 1 1 0 0 0 0 0 0 0 0 0 0 1 3 4 4 4 2 2 1 1 0 0 0 1 1 0 1 1 1 2 2 1 1 1 1 0 0 0 1 2 3 3 3 3 3 4 4
1 1 1 0 0 0 0 0 0 0 0 0 1 3 4 6 6 5 3 3 3 2 1 0 1 2 2 1 0 0 0 1 1 0 0 0 0 0 0 0 0 0 1 1 1 1 2 2 2
0 0 0 0 0 0 0 0 0 0 1 2 4 4 4 6 7 6 6 6 6 5 2 1 1 3 3 2 1 1 1 1 0 0 0 0 0 0 1 1 0 0 0 0 0 0 1 1 1
0 0 0 0 0 0 0 0 0 1 2 5 5 4 4 5 6 6 7 8 9 7 4 2 2 3 3 3 2 2 2 1 0 0 1 0 0 1 2 2 1 0 0 0 0 0 0 0 0
0 0 0 0 0 1 1 1 0 1 4 6 5 4 4 5 6 7 8 9 9 8 5 2 2 3 3 3 3 2 1 1 0 0 0 0 0 1 2 2 1 0 0 0 0 0 0 0 0
0 0 0 0 0 1 1 1 0 2 5 7 6 5 6 7 8 8 8 8 7 6 4 2 2 2 3 3 2 1 0 0 0 0 0 0 0 1 1 1 0 0 0 0 0 0 0 0 0
0 0 0 1 2 1 0 0 0 4 8 9 7 6 6 6 7 7 5 4 3 3 3 2 2 1 2 1 1 0 0 0 0 0 0 0 0 0 0 0 0 0 0 0 0 0 0 0 0
0 0 0 1 3 2 0 0 1 4 9 11 9 8 7 6 5 4 2 1 1 2 3 3 1 0 0 0 0 0 0 0 0 0 0 0 0 0 0 0 0 0 0 0 0 0 0 0 0
0 0 0 1 3 4 3 2 2 4 7 10 10 11 10 7 4 3 2 2 2 2 3 3 1 1 1 1 1 1 0 0 0 0 0 0 0 0 0 0 0 0 0 0 0 0 0 0 0
0 0 0 1 3 6 6 5 3 3 5 7 8 9 9 7 5 3 4 5 5 5 4 3 3 3 2 2 2 1 0 0 0 0 0 0 0 0 0 0 0 0 0 0 0 0 0 0 0
0 0 0 1 3 6 7 6 4 4 4 4 5 5 6 6 5 5 7 9 9 8 6 4 4 5 4 3 2 1 0 0 0 0 0 0 0 0 0 0 0 0 0 0 0 0 0 0 0
0 0 0 0 1 4 5 4 3 4 4 3 3 3 4 6 7 8 9 11 10 8 6 4 4 5 4 3 2 1 0 0 0 0 0 0 0 0 0 0 0 0 0 0 0 0 0 0 0
0 0 0 0 1 2 2 2 2 4 4 3 3 3 4 6 8 9 10 11 9 7 5 4 4 4 4 2 1 0 0 0 0 0 0 0 0 0 0 0 0 0 0 0 0 0 0 0 0
0 0 0 0 0 0 0 0 1 2 2 2 2 3 4 6 8 9 9 10 9 7 6 6 5 4 3 2 1 0 0 0 0 0 0 0 0 0 0 0 0 0 0 0 0 0 0 0 0
0 0 0 0 0 0 0 0 0 0 1 1 1 2 4 7 8 8 9 10 10 9 9 7 5 3 3 3 2 1 1 1 0 0 0 0 0 0 0 0 0 0 0 0 0 0 0 0 1
0 0 0 0 0 0 0 0 0 0 0 0 1 3 6 7 7 7 9 11 11 11 10 8 5 4 4 4 4 4 3 2 1 0 0 0 0 0 0 0 0 0 0 0 0 0 0 1 2
0 0 0 0 0 0 0 1 1 0 0 2 4 7 9 9 7 6 7 10 11 11 11 9 6 5 5 7 7 6 5 4 2 1 1 1 0 0 0 0 0 0 0 0 0 0 0 1 2
0 0 0 0 0 0 0 1 2 1 2 4 7 9 11 11 8 6 6 8 10 10 10 9 7 7 7 8 8 7 5 4 3 3 2 2 1 0 0 0 0 0 0 0 0 0 1 2 3
0 0 0 0 0 0 0 1 2 2 3 4 6 8 10 10 9 8 7 6 7 7 7 7 7 7 6 7 7 7 5 4 4 4 3 2 1 0 0 0 0 0 0 0 0 1 1 3 3
0 0 0 0 0 0 0 0 1 2 3 3 4 5 7 8 8 8 6 4 4 4 4 4 5 5 5 5 6 6 5 4 5 5 4 2 0 0 0 1 1 0 0 0 1 2 3 3 3
0 0 0 0 0 0 0 0 1 2 3 3 3 4 5 5 5 5 5 4 3 2 3 3 3 3 4 4 4 4 4 4 5 6 5 2 1 0 1 2 2 1 0 1 2 3 3 3 3
Wind_Speed
8 5 3 1 3 5 3 2 0 1 2 2 3 4 4 3 1 1 0 3 5 4 3 6 7 8 7 7 7 7 8 8 9 9 9 9 9 9 9 9 10 10 9 9 8 8 8 8 8
5 5 1 2 5 3 3 2 1 2 3 2 3 4 5 4 3 4 2 2 5 5 3 4 7 7 7 6 7 7 8 8 8 8 8 8 8 8 8 8 9 9 9 9 8 8 8 8 8
6 3 2 3 3 2 1 1 2 3 2 2 3 4 4 2 2 2 2 5 6 4 3 3 7 6 6 6 6 6 6 7 7 7 7 7 7 7 8 8 8 8 8 8 8 7 7 8 7
3 1 3 4 3 1 2 1 3 3 3 4 3 4 4 4 2 3 6 7 6 4 2 2 7 6 6 6 6 6 5 5 5 5 6 6 6 6 7 7 7 7 7 7 7 7 6 7 7
1 3 5 4 2 2 1 1 2 3 2 3 4 4 4 5 6 8 7 7 6 3 2 2 6 6 5 5 5 4 4 4 4 4 5 5 5 5 6 6 6 6 6 6 6 7 7 7 6
3 4 4 2 2 2 1 1 2 4 3 3 4 4 3 3 6 6 6 5 4 4 2 2 4 5 4 4 4 4 3 3 3 3 4 4 5 5 5 5 5 6 5 6 6 6 6 6 6
3 4 2 1 1 1 1 1 2 3 3 2 3 4 2 2 4 5 5 5 4 4 3 2 1 2 3 3 3 3 3 2 2 2 3 3 3 3 3 5 5 5 5 5 6 6 6 5 5
3 4 2 0 1 1 1 2 2 3 2 3 3 5 3 3 5 6 6 5 4 3 3 2 2 2 1 0 2 2 2 2 1 1 2 2 2 2 2 2 3 4 4 4 5 6 5 5 5
2 4 1 3 4 2 2 3 1 2 4 3 3 3 5 9 8 6 5 4 3 2 2 1 2 2 1 1 0 0 0 0 1 1 0 0 1 0 0 1 2 3 3 4 4 4 5 5 5
3 2 4 4 4 3 3 3 3 3 3 3 4 6 9 9 8 7 5 3 2 1 0 1 1 1 1 1 1 1 1 1 1 2 2 1 1 1 0 1 1 2 3 3 3 4 3 2 2
3 4 3 2 4 4 3 3 2 5 2 3 6 9 10 9 7 6 5 3 2 1 0 0 0 0 1 0 1 1 1 1 1 2 1 1 1 1 1 1 1 2 2 1 1 1 0 1 1
2 3 2 2 4 4 3 3 3 2 2 5 8 11 10 9 7 6 5 3 2 1 1 0 0 1 0 0 0 0 0 1 1 1 2 1 1 1 1 1 1 1 1 1 1 0 0 1 1
2 2 0 2 5 4 5 3 3 1 4 8 10 9 9 8 6 4 3 3 3 2 1 0 1 1 1 1 0 1 0 1 1 1 1 1 0 1 1 1 1 1 1 1 1 0 0 0 1
1 1 2 2 3 3 5 3 3 2 7 9 9 7 7 6 5 4 3 3 3 2 2 1 1 1 1 1 1 1 1 1 1 1 1 1 1 0 1 1 1 1 1 1 0 0 1 1 1
2 4 4 2 2 2 5 3 1 4 8 8 7 6 5 4 4 4 4 4 3 2 1 1 1 1 1 1 1 1 1 1 1 1 1 1 1 1 1 1 1 1 1 1 0 1 0 0 0
4 4 1 2 1 2 5 2 3 7 9 7 6 5 4 3 3 3 3 2 2 2 2 1 1 2 1 1 0 1 1 1 0 1 1 1 1 1 1 0 1 1 1 1 1 1 1 0 0
4 1 1 2 1 3 3 3 2 6 8 7 6 5 5 3 2 2 2 3 2 2 2 1 1 2 1 1 1 1 1 1 0 1 1 1 1 1 1 0 0 0 1 1 0 1 1 0 1
2 2 2 2 2 4 3 2 2 5 7 7 6 5 5 5 5 3 3 3 2 2 2 1 1 1 2 2 2 1 1 1 1 1 1 1 1 1 1 0 1 0 1 1 1 1 1 1 0
3 2 2 2 2 3 3 2 3 6 6 6 5 5 5 5 3 3 3 3 2 1 1 1 1 1 1 1 1 0 0 1 1 1 1 1 1 1 1 1 1 1 1 0 1 1 1 1 1
2 0 1 2 2 3 2 1 2 4 6 6 6 6 6 5 3 3 3 3 2 2 2 1 1 1 1 1 1 1 1 0 0 1 2 2 2 1 0 0 0 0 0 1 1 1 1 0 1
1 3 3 2 2 4 3 3 2 2 2 2 4 5 6 7 7 5 4 4 3 3 3 3 2 1 1 1 1 1 1 1 1 2 2 2 2 2 1 1 0 0 1 0 0 1 2 1 0
3 3 4 4 3 1 2 2 5 2 2 4 4 5 6 6 7 6 5 5 5 4 3 3 2 1 1 2 2 2 2 1 0 0 1 2 2 2 2 1 1 1 1 0 0 1 1 2 1
3 2 4 4 4 2 3 1 7 1 3 5 6 6 6 7 7 7 7 7 5 4 4 3 2 1 1 2 2 2 1 0 0 1 2 2 2 2 2 1 1 1 0 0 0 1 1 1 1
5 6 6 6 5 2 2 1 6 4 5 5 6 6 6 6 7 6 5 5 4 3 3 3 2 1 1 2 2 2 2 1 1 1 2 2 2 2 2 2 1 1 0 0 0 0 1 1 1
4 6 5 6 5 4 2 2 8 6 5 6 6 5 5 6 6 5 5 5 4 4 4 4 4 3 2 2 2 2 2 2 1 1 0 1 1 2 2 2 1 1 0 0 0 0 1 1 1
2 7 7 4 4 4 2 4 7 5 3 3 3 3 4 4 5 6 5 5 4 5 4 4 4 3 2 2 2 2 2 1 1 1 1 1 1 1 2 1 1 1 1 1 0 0 1 1 1
4 3 5 7 2 1 4 5 7 2 2 1 1 2 3 4 5 5 4 4 4 4 5 5 5 3 3 2 2 1 1 1 1 1 1 1 1 1 1 1 1 1 1 1 0 0 1 0 0
4 7 6 6 5 2 4 4 5 4 3 1 1 1 2 3 4 4 4 4 3 3 3 4 4 4 3 2 2 1 1 1 1 0 1 1 1 1 1 1 1 1 1 1 1 1 1 1 0
3 4 5 5 4 6 3 7 5 6 5 4 3 3 3 4 4 4 3 3 3 2 3 3 3 3 2 2 1 1 0 0 0 0 1 1 1 0 0 0 1 1 2 2 1 1 1 0 1
4 5 7 5 3 4 3 8 4 3 3 3 3 2 2 3 3 3 3 3 3 3 3 3 3 3 2 2 1 1 0 0 0 1 1 1 1 1 1 0 1 1 2 2 1 1 1 0 1
Wind_Direction
160 149 143 117 56 47 17 339 102 63 40 24 63 75 88 79 99 127 55 123 116 125 142 152 147 141 134 130 128 130 130 130 129 130 133 137 143 148 151 155 156 156 156 156 155 152 152 150 147
150 155 140 61 70 53 346 334 71 77 125 126 68 63 66 57 61 96 93 120 118 126 128 144 148 143 136 130 126 127 129 128 129 132 134 139 141 146 147 152 157 160 161 161 163 161 159 156 154
164 175 88 66 75 129 245 311 111 89 101 68 67 54 64 57 89 115 135 122 105 108 113 145 145 142 139 138 131 124 126 128 130 133 135 140 145 148 155 158 163 168 170 167 165 168 166 164 163
157 87 58 64 50 270 202 191 124 107 54 42 76 63 56 34 76 115 117 111 101 93 94 144 145 140 134 131 132 131 131 131 136 142 145 146 148 153 159 163 166 169 175 173 172 175 175 176 176
82 73 55 41 4 350 54 110 110 97 65 50 71 74 39 14 79 103 109 109 109 99 86 108 138 135 131 133 133 131 131 133 138 145 152 154 156 159 164 169 174 175 183 184 180 182 186 187 185
59 64 68 38 357 13 51 75 82 84 91 85 78 82 48 51 92 108 106 103 104 104 90 82 133 132 132 136 142 143 141 139 143 147 150 158 166 173 176 179 176 177 183 191 193 194 196 197 193
88 82 94 119 34 20 132 99 98 109 101 98 104 92 79 82 102 111 101 96 90 86 75 42 56 117 142 139 140 145 144 133 125 160 172 168 166 171 188 193 191 192 194 195 201 202 200 203 199
123 93 65 40 157 232 156 97 95 101 94 96 96 122 160 162 122 102 92 86 81 73 66 48 34 37 42 83 160 153 134 115 98 140 163 171 172 171 189 196 196 202 210 209 211 212 209 203 200
109 77 157 213 187 209 166 123 93 76 94 74 73 119 137 131 123 110 95 79 75 73 47 45 36 32 31 27 349 205 162 67 66 41 84 162 34 44 257 227 211 218 222 224 226 227 215 208 203
105 128 220 211 184 177 160 140 145 103 89 77 72 83 110 125 131 132 128 128 127 113 38 46 45 32 33 21 24 6 7 10 31 28 7 24 36 33 35 284 259 266 254 248 245 235 220 209 204
159 194 224 210 171 149 136 122 104 123 154 174 150 137 135 135 137 142 150 155 168 180 165 40 46 31 63 39 35 21 15 13 20 24 28 39 35 21 8 355 320 317 301 298 293 284 227 186 180
182 244 202 179 138 131 137 124 100 151 188 140 140 140 141 146 155 163 167 169 154 141 195 290 53 52 33 62 23 39 41 31 24 9 27 43 40 29 11 360 337 338 328 324 320 324 244 194 185
192 249 122 129 122 125 107 105 119 99 104 115 124 133 148 157 163 165 163 153 144 155 173 178 103 82 50 62 8 52 64 64 41 30 25 42 51 18 7 352 347 335 335 333 320 276 253 222 195
229 72 56 66 107 127 119 105 97 108 116 121 133 145 157 164 163 155 152 152 164 182 187 165 142 123 92 82 64 49 59 67 57 39 18 33 53 36 26 6 352 339 333 312 276 255 243 235 215
64 62 37 38 94 134 115 68 151 150 132 135 146 151 155 163 159 171 178 176 180 182 180 172 154 109 103 102 85 66 52 71 55 17 19 33 42 40 50 28 351 333 344 2 65 58 76 124 177
50 61 36 279 148 147 127 210 210 151 145 153 159 159 159 173 179 181 168 162 165 156 147 154 142 115 113 105 82 52 47 66 31 17 20 24 26 52 65 36 336 340 10 47 92 91 90 50 58
34 62 247 284 190 146 142 213 185 155 153 164 171 171 172 182 197 194 168 165 162 160 147 132 94 98 101 75 63 58 43 35 1 28 14 2 4 32 85 41 317 20 44 38 68 86 114 94 41
227 221 242 232 211 136 149 211 162 164 168 179 182 180 181 194 210 198 175 162 158 151 143 139 101 78 89 78 60 41 30 11 5 21 10 357 353 28 78 38 333 59 71 49 46 66 79 98 24
177 182 251 266 190 136 166 190 194 177 183 193 194 189 195 207 203 182 173 157 145 141 141 155 149 118 104 91 94 191 292 323 358 11 21 12 1 17 55 36 9 45 77 79 101 94 79 51 50
148 156 280 353 77 112 119 276 241 193 199 200 197 197 201 198 186 183 172 166 170 182 187 177 187 156 142 152 191 178 167 182 329 353 18 19 11 3 40 69 326 93 121 66 82 104 90 49 67
208 194 199 173 63 54 71 347 292 245 209 218 209 199 198 196 193 192 186 186 184 196 196 195 201 192 183 158 110 94 73 47 27 14 11 6 8 5 14 30 68 77 130 156 175 147 146 158 50
259 237 169 139 100 360 67 289 285 254 255 232 228 211 208 198 188 191 190 192 197 203 193 187 182 181 168 137 117 128 122 123 241 327 3 358 11 7 360 15 53 76 85 113 235 128 151 151 160
195 65 92 103 109 55 22 111 286 320 263 248 236 222 212 197 189 194 196 197 196 190 184 181 169 171 156 145 147 131 114 144 77 50 35 14 5 5 5 7 36 46 44 30 341 112 135 155 162
126 73 59 53 68 27 289 177 276 241 228 241 234 225 206 192 189 194 191 181 180 177 175 165 163 187 175 158 151 151 151 136 83 38 17 2 354 355 3 7 28 37 29 327 271 184 155 162 155
82 83 35 9 13 267 275 211 254 258 236 220 226 222 204 188 182 182 182 177 178 179 178 170 171 192 193 169 168 178 178 168 168 185 303 344 342 335 333 349 355 6 336 311 291 142 193 193 177
150 133 151 187 225 276 317 247 260 274 270 232 211 199 181 176 180 180 183 179 182 184 179 174 179 192 186 180 191 190 182 179 200 209 223 247 262 283 310 332 342 337 340 338 21 345 257 213 197
133 132 148 126 132 318 291 291 302 320 5 37 116 149 168 171 170 174 172 171 175 181 183 180 178 184 184 185 179 177 185 186 216 233 232 255 275 314 350 4 8 2 8 355 46 352 300 211 209
124 139 102 113 142 240 294 285 262 276 284 284 173 166 181 166 159 164 169 168 173 180 178 166 168 179 178 162 167 157 170 188 211 209 285 296 315 349 27 17 359 353 0 7 35 31 358 44 343
97 87 102 110 145 155 240 270 234 227 228 219 214 194 179 171 169 168 165 161 162 150 145 154 158 154 146 146 152 141 142 157 139 225 294 309 313 314 349 312 348 0 6 11 22 354 359 3 335
155 157 146 149 197 164 176 264 290 219 208 192 197 189 154 155 156 155 149 137 137 149 151 154 153 148 150 142 135 151 173 18 8 318 310 311 286 284 279 331 34 20 14 11 25 340 351 347 332